Wind_Speed
62 62 62 62 62 63 63 63 63 63 63 63 63 63 63 63 63 64 64 64 64 64 64 64 65 65 65 65 65 65 65 65 65 65 65 64 64 64 64 64 63 63 63 63 63 63 63 63 63 63 63 63 64 64 64 64 65 65 65 65 66 66 66 66 66 66 67 67 67 67 67 68 68 68 68 68 68 68 68 68 67 67 67 67 67 67
63 63 63 63 63 63 63 64 63 63 63 64 64 64 63 63 63 64 64 63 64 64 64 64 64 65 65 65 66 66 66 66 66 66 66 66 66 65 65 65 65 65 65 65 65 65 65 65 65 65 64 64 64 65 65 65 65 65 66 66 66 66 67 67 67 67 67 67 67 68 68 68 68 68 68 68 68 68 68 68 68 68 68 68 68 68
64 64 64 63 63 63 64 64 64 64 64 64 64 64 64 64 64 64 64 64 64 64 64 64 64 64 65 65 65 66 66 66 67 67 67 67 67 67 67 67 66 66 66 66 66 66 66 66 66 66 66 66 66 66 66 66 66 66 66 67 67 67 67 67 67 67 68 68 68 68 68 68 69 69 69 69 69 68 68 68 68 68 68 68 68 68
66 65 65 65 65 65 65 65 65 64 64 64 64 64 64 64 64 64 64 64 64 64 64 64 64 64 65 65 65 65 66 66 66 67 67 67 68 68 68 68 68 68 68 68 67 68 68 68 67 67 67 67 67 67 67 67 67 67 67 67 68 68 68 68 68 68 68 68 68 69 69 69 69 69 69 69 69 69 69 69 68 68 68 68 68 68
68 68 67 67 66 66 66 66 66 65 65 65 65 65 65 65 65 65 65 65 64 64 64 64 64 65 65 65 65 65 66 66 66 66 67 67 67 68 68 68 68 69 69 69 69 69 69 69 69 69 69 69 68 68 68 68 68 68 68 68 68 69 69 69 69 69 69 69 69 69 70 70 70 70 70 70 70 70 70 69 69 69 69 69 69 69
70 70 69 69 68 68 68 68 67 67 67 67 67 66 66 66 66 66 66 65 65 65 65 65 65 65 66 66 66 66 66 66 66 66 67 67 67 67 68 68 68 69 69 69 70 70 70 70 70 70 70 70 70 70 70 69 69 69 69 69 70 70 70 70 70 70 70 70 70 70 70 70 71 71 71 71 71 71 71 71 70 70 70 70 70 70
73 72 72 71 71 70 70 70 69 69 69 69 68 68 68 67 67 67 67 67 66 66 66 66 66 66 66 67 67 67 67 67 67 67 67 67 67 68 68 68 68 69 69 70 70 70 71 71 71 71 71 71 71 71 71 71 71 71 71 71 71 71 71 71 71 71 71 71 71 71 71 71 71 72 72 72 72 72 72 72 71 71 71 71 71 71
75 75 74 73 73 72 72 72 71 71 71 70 70 70 70 69 69 69 68 68 68 68 68 67 67 67 67 67 68 68 68 68 68 68 69 68 68 68 68 68 68 69 69 70 70 71 71 72 72 72 72 73 73 72 72 72 72 72 72 72 72 72 72 72 72 72 72 72 72 72 72 72 72 72 72 73 73 73 73 73 72 72 72 72 72 72
76 76 76 75 75 74 74 74 73 73 72 72 72 72 72 72 72 71 71 70 70 70 69 69 69 69 69 69 69 69 69 70 70 70 70 70 70 70 69 69 69 69 69 70 70 71 71 72 72 73 73 73 74 74 74 74 73 73 73 73 73 73 73 73 73 73 73 73 73 73 73 73 73 73 73 73 73 73 74 74 73 73 73 73 73 73
76 76 76 76 76 75 75 75 75 74 74 74 74 74 74 74 74 74 73 73 73 72 72 72 71 71 71 71 70 70 71 71 71 72 72 72 71 71 71 71 71 71 71 71 71 71 72 72 72 73 73 74 74 74 75 75 75 75 75 75 75 75 75 75 75 75 74 74 74 74 74 74 74 74 74 74 74 74 74 74 75 74 74 74 74 74
76 76 76 76 76 76 76 76 76 76 75 75 76 76 76 76 76 76 76 76 76 75 75 74 74 74 73 73 73 72 72 73 73 73 73 73 73 73 73 73 72 72 72 72 72 72 72 73 73 73 74 74 75 75 75 76 76 76 76 76 76 76 76 76 76 76 76 76 76 75 75 75 75 75 75 75 75 75 75 75 75 76 75 75 75 75
76 76 75 75 75 75 76 76 76 76 76 76 77 77 77 77 77 77 77 78 78 78 77 77 77 77 76 76 76 75 75 75 75 75 75 75 75 75 75 75 74 74 74 74 74 74 74 74 74 74 75 75 75 76 76 76 77 77 77 77 77 77 77 77 77 77 77 77 77 77 77 76 76 76 76 76 76 76 76 76 76 77 77 77 77 76
76 75 75 75 75 75 75 76 76 76 76 77 77 77 78 78 78 78 78 79 79 80 80 80 80 80 79 79 79 78 78 78 78 78 78 78 77 77 77 77 76 76 76 76 76 76 76 76 76 76 76 76 77 77 77 77 78 78 78 78 79 79 79 79 79 79 79 79 79 78 78 78 78 77 77 77 77 77 77 77 78 78 78 78 78 78
76 76 76 75 75 75 75 75 76 76 77 77 77 78 78 79 79 79 80 80 81 81 82 82 83 83 83 82 81 81 81 81 81 81 81 81 80 80 79 79 79 79 78 78 78 78 78 78 78 78 78 78 78 78 79 79 79 79 79 80 80 80 80 80 81 81 81 80 80 80 80 80 80 79 79 79 79 79 78 79 79 79 79 80 80 79
77 77 77 77 77 76 76 76 77 77 78 78 78 79 79 80 80 81 81 82 83 83 84 84 85 85 86 85 85 84 84 84 85 85 85 85 84 83 82 82 82 82 81 81 81 81 80 80 80 80 80 80 80 80 81 81 81 81 81 81 82 82 82 82 82 82 83 83 82 82 82 82 82 82 81 81 81 80 80 80 80 81 81 81 81 81
79 79 79 79 79 79 78 78 79 79 79 80 80 81 81 82 82 83 83 84 85 85 86 87 88 88 89 88 88 87 87 87 88 88 89 89 88 87 86 86 86 85 85 84 84 84 83 83 83 83 83 83 83 83 83 83 83 83 83 84 84 84 84 84 84 84 85 85 85 85 85 85 84 84 84 83 83 83 83 82 83 83 83 83 83 84
82 82 81 81 81 81 81 81 81 81 82 82 82 83 83 84 85 85 86 87 87 88 88 89 90 91 92 92 91 91 90 90 91 91 92 92 92 91 90 90 90 89 89 88 88 87 87 86 86 86 86 85 85 85 85 85 85 85 86 86 86 86 86 86 86 87 87 87 87 87 87 87 87 87 87 86 86 86 85 85 85 85 85 85 86 86
84 84 84 84 84 84 84 84 84 84 84 85 85 85 86 86 87 88 88 89 89 90 91 91 92 93 94 95 95 94 93 93 94 94 95 96 96 95 94 94 94 93 93 93 92 91 91 90 90 89 89 88 88 88 88 88 88 88 88 88 88 88 88 88 88 89 89 89 89 89 90 90 90 90 90 89 89 89 88 88 88 88 88 88 88 88
87 87 87 87 87 87 87 87 87 87 87 87 88 88 89 89 90 90 91 91 92 92 93 94 94 95 96 97 97 97 96 96 97 97 98 99 99 99 98 97 97 97 97 97 96 95 95 94 94 93 93 92 92 91 91 91 90 90 90 90 90 90 90 90 90 91 91 91 91 91 92 92 92 92 92 92 92 92 91 91 91 91 91 91 91 91
89 89 89 89 89 89 89 89 89 89 90 90 90 91 91 92 92 92 93 93 94 94 95 95 96 97 98 98 99 99 99 99 99 99 100 101 101 101 101 100 100 100 100 100 100 99 99 98 98 98 97 96 95 95 94 94 94 93 93 93 93 93 93 93 93 93 93 93 93 93 94 94 94 94 94 94 94 94 94 94 94 94 94 93 93 93
92 92 92 92 92 92 92 92 92 92 92 92 93 93 94 94 94 95 95 96 96 96 97 97 98 99 99 100 101 101 101 100 101 101 102 102 103 103 103 103 102 103 103 103 103 102 102 102 102 101 101 100 99 99 98 98 97 97 96 96 95 95 95 95 95 95 95 95 95 95 96 96 96 96 96 96 96 97 97 96 96 96 96 96 96 96
94 94 94 94 94 94 94 95 94 94 94 95 95 95 96 96 97 97 97 98 98 98 99 99 100 100 101 101 102 103 103 102 102 102 103 103 104 105 105 105 104 104 105 105 105 105 105 105 105 104 104 104 103 103 102 101 101 100 100 99 98 98 98 98 97 97 97 97 97 98 98 98 98 98 98 98 98 98 99 99 99 99 99 99 99 99
96 96 96 96 96 97 97 97 97 97 97 97 97 98 98 98 99 99 100 100 100 100 101 101 102 102 103 103 104 104 105 104 104 104 104 105 106 106 107 106 106 106 107 107 107 107 107 107 107 107 107 106 106 106 106 105 104 104 103 102 102 101 101 100 100 100 100 100 100 100 100 100 100 100 100 100 100 100 100 100 100 100 101 101 101 101
98 99 99 99 99 99 99 100 100 100 100 100 100 100 101 101 101 102 102 102 102 102 103 103 104 104 105 105 106 106 107 107 106 106 106 107 107 108 108 108 108 108 108 109 109 108 108 109 109 109 109 108 108 108 108 108 107 107 106 106 105 105 104 104 103 103 103 102 102 102 102 102 102 101 101 101 101 101 101 101 102 102 102 102 102 102
101 101 102 102 102 102 102 103 103 103 103 103 103 103 103 103 104 104 104 104 104 104 105 105 105 106 107 107 108 108 109 109 108 108 108 109 109 109 109 109 109 109 110 110 110 110 110 110 110 110 110 110 110 110 110 110 110 109 109 109 108 107 107 106 106 106 105 105 105 104 104 104 103 103 103 103 102 102 102 102 102 102 103 103 103 103
104 104 104 105 105 105 105 105 106 106 106 106 106 106 106 106 106 106 106 106 106 106 107 107 107 108 109 109 109 110 111 111 111 110 110 110 111 111 111 111 111 111 111 111 111 111 111 111 112 112 112 112 112 111 111 111 111 111 111 110 110 110 109 109 109 108 108 108 107 107 106 106 106 105 105 104 104 104 103 103 103 103 103 103 104 104
106 107 107 107 108 108 108 108 108 108 108 108 108 108 108 108 108 108 109 109 109 108 108 109 109 110 110 110 111 112 112 112 113 112 112 112 112 112 113 113 112 112 112 112 112 112 112 112 112 113 113 113 113 113 112 112 112 112 112 112 112 111 111 111 111 110 110 110 110 109 109 108 108 107 107 106 106 105 105 104 104 104 104 104 104 104
109 109 109 110 110 110 110 110 111 111 111 111 111 110 110 110 110 110 111 111 111 110 110 111 111 111 111 111 112 113 113 113 114 114 114 113 113 114 114 114 113 113 113 113 112 112 112 112 112 113 113 113 113 113 113 113 113 113 113 113 112 112 112 112 112 112 112 112 111 111 111 110 110 109 109 108 107 107 106 106 105 104 104 104 104 104
111 111 112 112 112 112 113 113 113 113 113 113 113 112 112 112 112 112 112 112 112 112 112 112 112 112 112 112 113 113 114 114 115 115 114 114 114 114 115 114 114 114 113 113 113 112 112 112 112 112 112 113 113 113 113 113 113 113 113 113 113 113 113 113 113 113 113 113 113 113 112 112 112 111 111 110 109 109 108 107 106 106 105 105 105 105
113 113 114 114 114 115 115 115 115 115 115 115 115 114 114 113 113 113 113 113 113 113 113 113 113 113 113 112 113 113 114 115 115 115 114 114 114 115 115 114 114 114 113 113 112 112 112 112 111 111 111 112 112 112 112 113 113 113 113 113 113 113 113 113 113 113 113 113 114 114 114 114 113 113 112 112 111 111 110 109 108 107 107 106 105 105
116 116 116 116 117 117 117 117 117 117 117 116 116 116 115 115 114 114 114 113 113 113 113 113 113 113 113 112 112 113 114 115 115 115 114 114 114 115 114 114 114 114 114 112 111 111 111 111 110 110 110 110 110 111 111 111 112 112 112 112 112 112 113 113 113 113 113 114 114 114 115 115 115 114 114 114 113 113 112 111 110 109 108 107 107 106
118 118 118 118 118 118 118 118 118 118 117 117 116 116 115 115 114 114 113 113 113 113 113 113 113 113 112 112 112 113 114 114 115 114 113 113 114 114 114 113 113 113 113 112 111 110 110 109 109 108 108 108 108 109 110 110 111 111 111 111 112 112 113 113 113 113 114 114 115 115 115 116 116 116 115 115 115 114 114 113 112 111 110 109 108 108
120 120 120 120 119 119 119 118 118 118 117 117 116 116 115 114 114 114 113 113 113 112 112 112 112 112 112 112 112 112 113 113 114 114 113 112 112 113 112 112 112 112 112 111 110 110 109 108 108 107 106 106 107 107 108 109 110 110 110 111 111 112 113 113 113 114 114 115 115 116 116 116 117 117 117 117 116 116 115 115 114 113 112 111 110 110
122 121 121 120 120 119 119 118 117 117 116 116 115 115 114 114 113 113 113 113 112 112 112 112 111 112 111 111 111 111 112 112 113 112 112 111 111 111 111 111 111 111 110 110 110 109 108 108 107 106 106 106 106 107 107 108 109 110 110 111 111 112 113 114 114 115 115 116 116 117 117 118 118 118 118 118 118 118 117 117 116 115 114 113 112 112
122 121 121 120 119 118 118 117 116 116 115 115 114 114 114 113 113 113 113 112 112 112 111 111 111 111 111 110 110 110 111 111 111 111 110 110 110 110 110 110 110 110 110 110 110 109 108 108 107 107 106 106 107 107 108 109 110 110 111 112 112 113 114 115 115 116 117 117 118 118 119 119 119 120 120 120 120 119 119 118 118 117 116 115 115 114
122 121 120 119 118 117 117 116 115 115 114 114 114 113 113 113 113 113 113 112 112 112 111 111 110 110 110 109 109 109 110 110 110 110 110 110 110 110 110 110 111 110 110 110 110 110 109 109 108 108 108 107 108 109 110 110 111 112 112 113 114 115 115 116 117 117 118 119 119 120 121 121 121 121 121 121 121 121 121 120 120 119 119 118 117 116
121 120 119 118 117 116 116 115 115 114 114 114 113 113 113 113 113 113 112 112 112 111 111 111 110 110 109 109 109 109 109 110 110 110 110 111 111 111 111 111 112 111 111 111 111 111 111 110 110 110 109 109 110 111 111 112 112 113 114 115 115 116 117 118 119 119 120 120 121 122 122 122 123 123 123 123 123 123 122 122 122 121 121 120 119 118
120 119 118 117 116 115 115 115 114 114 114 113 113 113 113 113 113 112 112 112 112 111 111 111 110 110 109 109 109 109 109 110 110 111 111 112 112 112 112 113 113 113 113 113 113 113 112 112 112 111 111 112 112 112 113 113 114 114 115 116 117 118 119 120 120 121 122 122 123 123 124 124 124 124 124 124 124 124 124 124 124 123 123 122 121 120
118 117 117 116 116 115 115 114 114 114 113 113 113 113 113 113 113 113 112 112 112 111 111 111 111 110 110 110 110 110 110 111 111 112 113 113 113 114 114 114 115 115 115 115 114 114 114 114 114 113 113 113 114 114 114 115 115 116 117 118 118 119 120 121 122 122 123 124 124 125 125 125 125 126 126 126 125 125 125 125 125 125 125 124 123 122
117 117 116 116 115 115 114 114 114 114 114 113 113 113 113 113 113 113 112 112 112 112 112 112 111 111 111 111 111 111 112 112 113 113 114 115 115 115 115 116 116 117 117 116 116 116 116 116 115 115 115 115 115 115 116 116 117 117 118 119 119 120 121 122 123 124 125 125 126 126 127 127 127 127 127 127 127 127 127 127 127 126 126 126 125 125
116 116 116 115 115 115 115 114 114 114 114 114 114 114 113 113 113 113 113 113 113 113 113 113 113 113 112 113 113 113 113 114 115 115 116 116 117 117 117 118 118 118 118 118 118 118 117 117 117 117 117 117 117 117 117 117 118 118 119 119 121 122 122 123 124 124 125 126 127 128 128 128 128 128 128 128 128 128 128 128 128 128 128 127 127 126
116 116 116 115 115 115 115 114 114 114 114 114 114 114 114 114 114 114 114 114 114 114 114 114 114 114 114 114 114 115 115 116 116 117 118 118 119 119 119 120 120 120 120 120 120 120 119 119 119 119 119 119 118 118 118 118 119 119 120 121 122 122 123 124 124 125 126 127 128 129 129 129 130 130 130 129 129 129 129 129 129 129 129 128 128 128
115 115 115 115 115 115 115 115 114 114 114 114 114 115 115 115 114 115 115 115 115 115 116 116 115 115 116 116 116 117 117 117 118 119 119 120 121 121 121 122 122 122 122 122 121 121 121 120 120 120 120 120 119 119 119 119 120 120 121 122 122 123 124 125 125 126 126 128 129 129 130 130 131 131 130 130 130 130 130 130 130 130 130 129 129 129
115 115 115 115 115 115 115 115 115 115 115 115 115 115 115 115 115 115 116 116 116 117 117 117 117 117 117 118 118 118 119 119 120 120 121 122 122 123 123 124 124 124 123 123 123 123 122 122 122 121 121 121 120 120 120 120 121 121 122 122 123 123 124 125 126 126 127 128 129 130 131 131 131 131 131 131 131 131 131 131 131 131 130 130 130 129
115 115 115 114 114 114 114 115 115 115 115 115 116 116 116 116 116 116 117 117 118 118 118 118 118 118 119 119 120 120 120 121 121 122 122 123 124 124 125 125 125 125 125 125 124 124 123 123 123 123 122 122 121 121 121 121 122 122 122 123 123 124 125 125 126 126 127 128 129 130 131 131 131 131 131 131 131 131 131 131 131 131 131 131 130 130
114 114 114 114 114 114 115 115 115 116 116 116 116 117 117 117 117 117 118 118 119 119 119 119 120 120 120 121 121 121 121 121 122 122 123 124 124 125 126 126 126 126 126 126 125 125 124 124 124 123 123 123 122 122 122 122 122 123 123 123 124 124 124 125 125 126 127 128 128 129 130 130 131 131 131 131 131 131 131 131 131 131 131 131 130 130
114 114 114 114 115 115 115 116 116 116 116 117 117 117 117 117 118 118 118 119 119 120 120 120 120 121 121 121 121 121 121 122 122 123 123 124 125 125 126 127 127 127 127 127 126 126 125 125 124 124 124 123 123 123 122 122 122 122 123 123 123 123 123 124 124 125 126 126 127 128 129 129 130 130 130 130 130 130 130 130 130 130 130 130 130 130
115 115 115 115 115 115 116 116 116 116 117 117 117 117 117 118 118 118 119 119 120 120 120 120 121 121 121 121 121 121 121 121 122 122 123 123 124 125 126 127 127 127 127 127 127 127 126 126 125 125 124 124 124 123 123 122 122 122 122 122 122 122 122 123 123 123 124 125 126 127 127 128 128 129 129 129 129 129 129 128 128 128 129 129 129 129
115 115 115 115 116 116 116 116 116 116 116 117 117 117 117 117 117 118 118 119 119 120 120 120 120 121 121 121 121 121 121 121 122 122 122 123 124 124 125 126 127 127 127 128 128 127 127 126 126 125 124 124 124 124 123 123 122 122 121 121 121 121 121 121 121 122 122 123 124 125 125 126 126 127 127 127 127 127 126 126 126 127 127 128 128 128
115 115 115 116 116 116 116 116 116 116 116 116 116 116 116 117 117 117 118 118 119 119 119 120 120 120 121 121 121 121 121 121 122 122 122 123 123 124 125 126 126 127 127 128 128 128 127 127 126 125 124 123 123 123 123 123 122 121 120 120 120 120 120 120 120 120 121 121 122 123 123 124 124 124 124 124 124 124 124 124 124 124 125 125 126 127
115 115 115 115 115 115 115 115 115 115 115 115 115 115 115 116 116 117 117 118 118 119 119 120 120 120 121 121 121 121 122 122 122 122 123 123 123 124 125 125 126 127 127 128 128 128 127 127 126 125 124 122 121 121 122 122 122 121 120 119 118 118 118 118 118 118 119 119 119 120 120 121 121 121 121 121 121 121 121 120 120 121 121 122 123 124
Wind_Direction
277 277 276 276 276 276 275 275 274 274 274 273 273 273 273 273 273 273 274 274 274 274 275 275 275 275 275 275 274 274 274 274 273 273 272 272 271 271 271 270 270 270 270 269 269 269 268 268 268 267 267 266 266 266 266 266 266 266 266 266 266 266 265 265 265 265 265 265 265 265 265 265 265 265 265 265 265 265 265 265 265 265 265 265 265 265
276 276 276 276 276 276 276 275 275 275 274 274 274 273 273 273 273 273 273 273 273 273 274 274 274 274 274 274 274 274 274 274 274 273 273 272 272 271 271 270 270 270 270 269 269 269 268 268 268 267 267 266 266 266 266 265 265 265 265 265 265 265 265 265 265 265 265 265 265 265 265 265 265 265 265 265 265 265 265 265 265 265 265 265 265 265
276 276 276 276 276 276 276 276 276 275 275 275 275 274 274 274 273 273 273 273 273 273 273 273 273 273 273 274 274 274 274 274 274 273 273 273 272 272 271 271 270 270 270 269 269 269 268 268 268 268 267 267 266 266 265 265 265 265 265 265 265 265 265 265 265 265 265 265 264 264 265 265 265 265 265 265 265 265 265 265 264 264 264 264 264 264
275 275 275 275 275 275 275 275 275 275 275 275 275 275 275 275 274 274 274 273 273 273 273 273 273 273 273 273 273 273 273 273 273 273 273 273 273 272 272 271 271 270 270 270 269 269 269 268 268 268 267 267 267 266 266 265 265 265 265 265 265 265 265 265 264 264 264 264 264 264 264 264 264 264 264 264 264 264 264 264 264 264 264 264 264 264
275 275 275 275 275 275 274 275 275 275 275 275 275 275 275 275 275 275 274 274 274 273 273 273 273 273 272 272 272 272 273 273 273 273 273 273 273 273 272 272 272 271 271 270 270 269 269 269 268 268 268 267 267 267 266 266 266 265 265 265 265 265 264 264 264 264 264 264 264 264 264 264 264 264 264 264 264 264 264 264 263 263 263 263 263 263
276 276 275 275 275 275 275 275 274 274 274 274 274 274 274 274 275 275 275 275 274 274 274 274 273 273 273 272 272 272 272 272 272 272 272 272 272 272 272 272 272 272 271 271 271 270 270 269 269 269 268 268 268 267 267 266 266 266 265 265 265 265 265 264 264 264 264 264 264 264 264 264 264 264 264 264 264 264 264 263 263 263 263 263 263 263
277 276 276 276 276 275 275 275 275 275 274 274 274 274 274 274 274 274 274 274 274 274 274 274 274 274 273 273 273 273 272 272 272 272 272 272 272 272 272 272 272 272 272 272 271 271 271 270 270 269 269 269 268 268 268 267 267 266 266 266 265 265 265 265 264 264 264 264 264 264 263 263 263 263 263 263 263 263 263 263 263 263 263 263 262 262
277 277 277 277 276 276 276 275 275 275 275 275 274 274 274 274 273 273 273 274 274 274 274 274 274 274 274 274 274 273 273 273 272 272 272 272 271 271 271 271 271 271 271 272 271 271 271 271 271 270 270 270 269 269 268 268 267 267 267 266 266 266 265 265 265 265 264 264 264 264 264 263 263 263 263 263 263 263 263 263 263 263 263 263 262 262
278 278 277 277 277 276 276 276 276 275 275 275 275 275 274 274 274 274 274 273 273 273 274 274 274 274 274 274 274 274 274 273 273 273 272 272 272 272 271 271 271 271 271 271 271 271 271 271 271 271 271 271 270 270 269 269 268 268 267 267 267 266 266 266 265 265 265 265 264 264 264 264 264 263 263 263 263 263 263 263 263 263 263 263 262 262
278 278 278 277 277 277 276 276 276 276 276 276 276 275 275 275 275 275 274 274 274 274 274 274 274 274 274 274 274 274 274 274 273 273 273 273 272 272 272 271 271 271 271 270 270 270 270 271 271 271 271 271 271 271 270 270 269 269 268 268 267 267 267 266 266 266 266 265 265 265 264 264 264 264 264 263 263 263 263 263 263 263 263 263 263 262
279 279 278 278 277 277 277 276 276 276 276 276 276 276 276 276 276 276 276 275 275 275 274 274 274 274 274 274 274 274 274 274 274 273 273 273 273 273 272 272 272 271 271 271 270 270 270 270 270 270 270 270 271 271 271 270 270 270 269 269 268 268 267 267 267 266 266 266 266 265 265 265 265 264 264 264 264 264 264 263 263 263 263 263 263 263
279 279 279 279 278 278 277 277 277 277 277 277 277 277 276 276 276 276 277 276 276 276 276 276 275 275 275 275 275 274 274 274 274 274 273 273 273 273 273 272 272 272 271 271 271 270 270 270 270 269 269 270 270 270 270 270 270 270 270 270 269 269 268 268 268 267 267 267 266 266 266 266 265 265 265 265 264 264 264 264 264 264 264 263 263 263
279 280 279 279 279 278 278 278 277 277 277 277 277 277 277 277 277 277 277 277 277 277 277 277 277 277 276 276 276 276 275 275 275 274 274 274 273 273 273 272 272 272 271 271 271 270 270 270 270 269 269 269 269 269 269 269 270 270 270 270 269 269 269 269 268 268 268 267 267 267 266 266 266 266 265 265 265 265 265 264 264 264 264 264 264 263
279 279 279 279 279 279 279 278 278 278 278 278 278 278 278 278 278 278 278 278 278 278 278 278 278 278 278 277 277 277 277 277 276 276 275 275 274 274 273 273 272 272 272 271 271 270 270 270 270 269 269 269 269 269 269 269 269 269 269 269 269 269 269 269 269 269 268 268 268 267 267 267 266 266 266 266 265 265 265 265 265 265 265 265 264 264
279 279 279 279 279 279 279 279 278 278 278 278 278 278 278 278 278 278 279 279 279 279 279 279 279 279 279 279 279 278 278 278 278 278 277 277 276 275 274 274 273 273 272 272 271 271 270 270 270 269 269 269 269 268 268 268 268 268 268 268 268 268 268 268 269 269 269 268 268 268 268 267 267 267 266 266 266 266 265 265 265 265 265 265 265 265
279 279 279 279 279 279 279 279 279 279 278 278 278 278 278 279 279 279 279 279 279 280 280 280 280 280 280 280 280 279 279 280 279 279 279 278 278 277 276 276 275 274 274 273 272 272 271 270 270 270 269 269 269 268 268 268 268 268 268 268 268 268 268 268 268 268 268 268 268 268 268 268 268 267 267 267 266 266 266 266 265 265 265 265 265 265
278 278 279 279 279 279 279 279 279 279 279 279 279 279 279 279 279 279 279 279 280 280 280 280 281 281 281 281 281 280 280 280 280 280 280 280 279 278 278 277 277 276 275 275 274 273 272 272 271 270 270 269 269 268 268 268 268 268 267 267 267 267 267 267 267 267 268 268 268 268 268 268 268 267 267 267 267 266 266 266 266 265 265 265 265 266
278 278 278 278 278 278 278 278 278 278 278 278 279 279 279 279 279 279 279 279 280 280 280 280 281 281 281 281 281 281 281 281 281 281 281 281 280 280 279 279 278 278 277 276 276 275 274 273 272 272 271 270 270 269 269 268 268 268 267 267 267 267 267 267 267 267 267 267 267 267 267 267 267 267 267 267 267 267 266 266 266 266 265 265 265 265
278 278 278 278 278 278 278 278 278 278 278 278 278 279 279 279 279 279 279 279 279 280 280 280 280 281 281 281 281 281 281 281 281 281 281 281 281 281 280 280 280 279 279 278 277 277 276 275 274 274 273 272 271 271 270 269 269 268 268 268 267 267 267 267 267 267 267 267 267 267 267 267 267 267 267 267 267 267 266 266 266 266 265 265 265 265
277 277 277 277 278 278 278 278 278 278 278 278 278 278 278 278 278 279 279 279 279 279 280 280 280 280 280 281 281 281 281 281 281 281 281 281 281 281 281 281 280 280 280 279 279 278 278 277 276 276 275 274 273 272 272 271 270 270 269 269 268 268 268 267 267 267 267 266 266 266 266 266 266 267 267 267 267 267 266 266 266 266 266 265 265 265
277 277 277 277 277 277 277 278 278 278 278 278 278 278 278 278 278 278 278 279 279 279 279 279 279 280 280 280 280 280 281 281 281 281 281 281 281 281 280 280 280 280 280 280 279 279 279 278 278 277 277 276 275 274 274 273 272 271 271 270 270 269 269 268 268 267 267 267 266 266 266 266 266 266 266 266 266 266 266 266 266 266 266 265 265 265
277 277 277 277 277 277 277 277 278 278 278 278 278 278 278 278 278 278 278 278 279 279 279 279 279 279 280 280 280 280 280 280 280 280 280 280 280 280 280 280 280 280 279 279 279 279 279 279 278 278 278 277 277 276 275 275 274 273 273 272 271 270 270 269 269 268 268 267 267 266 266 266 266 266 266 266 266 266 266 266 266 265 265 265 265 265
277 277 277 277 277 277 277 277 277 277 277 277 277 277 278 278 278 278 278 278 278 279 279 279 279 279 279 279 279 279 279 279 279 279 279 279 279 279 279 279 279 279 279 279 279 279 278 278 278 278 278 278 277 277 277 276 276 275 274 274 273 272 271 271 270 269 269 268 268 267 267 266 266 266 265 265 265 265 265 265 265 265 265 265 265 265
278 278 278 278 278 278 277 277 277 277 277 277 277 277 278 278 278 278 278 278 278 278 278 279 279 279 279 279 279 279 278 278 278 278 278 278 278 278 278 278 278 278 278 278 278 278 278 278 278 278 278 278 277 277 277 277 276 276 276 275 274 274 273 272 272 271 270 269 269 268 267 267 266 266 265 265 265 265 265 265 265 265 265 265 265 265
278 278 278 278 278 278 278 278 278 278 277 277 277 278 278 278 278 278 278 278 278 278 278 278 278 278 278 278 278 278 278 278 278 277 277 277 277 277 277 277 277 277 277 277 277 277 277 277 277 277 277 277 277 277 277 277 277 277 276 276 275 275 274 274 273 272 271 271 270 269 268 268 267 266 266 265 265 265 264 264 264 264 264 264 264 264
278 278 278 278 278 278 278 278 278 278 278 278 278 278 278 278 278 278 278 278 278 278 278 278 278 278 278 278 278 278 277 277 277 277 277 276 276 276 276 276 276 276 276 276 276 277 277 277 277 277 277 277 277 277 277 277 277 277 276 276 276 275 275 274 274 273 272 272 271 270 269 269 268 267 266 266 265 265 264 264 264 264 264 264 264 264
279 279 278 278 278 278 278 278 278 278 278 278 278 278 278 278 278 278 278 278 278 278 278 278 277 277 277 277 277 277 277 277 276 276 276 276 276 276 275 275 275 275 275 275 276 276 276 276 276 276 277 277 277 277 276 276 276 276 276 276 276 275 275 275 274 274 273 272 272 271 270 270 269 268 267 267 266 265 265 264 264 263 263 263 263 263
279 279 279 279 279 278 278 278 278 278 278 278 278 278 278 278 278 278 278 278 278 278 277 277 277 277 277 277 276 276 276 276 276 275 275 275 275 275 275 275 275 275 275 275 275 275 275 275 276 276 276 276 276 276 276 276 276 275 275 275 275 275 275 274 274 274 273 273 272 272 271 270 270 269 268 267 267 266 265 264 264 263 263 263 262 262
279 279 279 279 279 279 279 279 279 279 279 279 278 278 278 278 278 278 278 278 278 277 277 277 276 276 276 276 276 275 275 275 275 275 275 275 275 274 274 274 274 274 274 274 274 274 274 275 275 275 275 275 275 275 275 275 275 275 274 274 274 274 274 273 273 273 273 272 272 272 271 271 270 270 269 268 268 267 266 265 264 264 263 263 262 262
280 280 280 280 280 280 280 279 279 279 279 279 279 279 279 278 278 278 278 277 277 277 277 276 276 275 275 275 275 275 275 274 274 274 274 274 274 274 274 274 274 274 274 274 274 274 274 274 274 274 274 274 274 274 274 274 274 274 274 273 273 273 273 273 272 272 272 272 272 271 271 271 270 270 269 269 268 267 267 266 265 264 263 263 262 262
280 280 280 280 280 280 280 280 280 280 280 279 279 279 279 278 278 278 277 277 277 276 276 276 275 275 275 275 274 274 274 274 274 273 274 274 273 273 273 273 273 273 273 273 273 273 273 273 273 273 273 273 273 273 273 273 273 273 273 273 272 272 272 272 271 271 271 271 271 271 270 270 270 269 269 269 268 268 267 266 266 265 264 263 262 262
281 281 281 280 280 280 280 280 280 280 280 279 279 279 279 278 278 277 277 277 276 276 276 275 275 275 274 274 274 274 274 273 273 273 273 273 273 273 273 273 273 273 273 272 272 272 272 272 271 271 272 272 272 272 272 272 272 272 272 272 272 272 271 271 271 271 270 270 270 270 270 270 269 269 269 268 268 268 267 267 266 265 265 264 263 262
281 281 281 281 281 281 280 280 280 280 280 279 279 279 278 278 277 277 277 276 276 275 275 275 275 274 274 274 274 274 273 273 273 273 273 273 273 273 273 272 272 272 272 272 271 271 271 270 270 270 270 270 270 271 271 271 271 271 271 271 271 271 271 271 270 270 270 270 269 269 269 269 269 269 268 268 268 267 267 267 266 266 265 264 264 263
281 281 281 281 281 281 281 280 280 280 279 279 279 278 278 278 277 277 276 276 276 275 275 275 275 274 274 274 274 274 273 273 273 273 273 273 273 272 272 272 272 272 271 271 271 270 270 270 269 269 269 269 269 269 269 270 270 270 270 270 270 270 270 270 270 270 270 269 269 269 269 268 268 268 268 268 267 267 267 266 266 266 265 264 264 263
282 282 282 281 281 281 281 280 280 280 279 279 278 278 278 277 277 277 276 276 276 275 275 275 275 274 274 274 274 274 274 273 273 273 273 273 272 272 272 272 271 271 271 270 270 270 269 269 269 268 268 268 268 268 268 268 269 269 269 269 269 269 269 269 269 269 269 269 269 269 268 268 268 268 268 267 267 267 267 266 266 266 265 265 264 263
282 282 282 281 281 281 280 280 280 279 279 279 278 278 278 277 277 277 276 276 276 276 275 275 275 275 274 274 274 274 274 274 274 273 273 273 272 272 272 271 271 270 270 270 270 269 269 269 268 268 268 268 267 267 267 267 268 268 268 268 268 268 268 268 268 268 268 268 268 268 268 268 268 268 268 267 267 267 267 267 266 266 265 265 264 264
282 282 281 281 281 281 280 280 280 279 279 279 278 278 278 278 277 277 277 277 277 276 276 276 276 275 275 275 275 274 274 274 274 274 273 273 273 272 272 271 271 270 270 270 269 269 269 268 268 268 267 267 267 267 267 267 267 267 267 267 267 267 267 267 267 267 267 267 267 267 267 267 267 267 267 267 267 267 267 267 266 266 266 265 265 264
282 281 281 281 280 280 280 280 279 279 279 279 279 278 278 278 278 278 278 277 277 277 277 277 276 276 276 275 275 275 275 275 274 274 274 273 273 272 272 272 271 270 270 270 269 269 269 268 268 267 267 266 266 266 266 266 266 266 266 266 266 266 266 266 266 266 266 266 266 266 266 266 266 266 267 267 267 267 267 267 267 266 266 266 265 265
281 281 281 280 280 280 280 280 279 279 279 279 279 279 279 279 278 278 278 278 278 278 278 277 277 277 277 276 276 276 275 275 275 274 274 274 273 273 272 272 271 271 270 270 269 269 269 268 268 267 266 266 266 266 265 265 265 265 265 265 265 265 266 266 266 266 266 266 266 266 266 266 266 266 266 266 266 266 266 266 266 266 266 266 266 265
281 280 280 280 280 280 280 279 279 279 279 279 279 279 279 279 279 279 279 279 279 278 278 278 278 278 277 277 277 277 276 276 275 275 275 274 274 273 273 272 272 271 271 270 269 269 268 268 267 267 266 266 265 265 265 265 265 265 265 265 265 265 265 265 265 265 265 265 265 265 265 265 265 265 265 265 265 265 265 265 266 266 266 266 266 266
280 280 280 280 280 280 280 280 280 280 280 280 280 280 280 279 279 279 279 279 279 279 279 278 278 278 278 278 277 277 277 277 276 276 275 275 274 274 273 273 272 272 271 270 270 269 269 268 268 267 266 266 265 265 265 265 264 264 264 264 264 264 264 264 264 264 264 265 265 265 265 265 265 265 265 265 265 265 265 265 265 265 265 265 265 265
279 279 279 280 280 280 280 280 280 280 280 280 280 280 280 280 280 280 280 280 279 279 279 279 279 279 278 278 278 277 277 277 277 276 276 275 275 274 274 273 272 272 271 271 270 269 269 268 268 267 267 266 266 265 265 264 264 264 264 264 264 264 264 264 264 264 264 264 264 264 264 264 264 264 264 264 264 264 264 264 264 264 264 265 265 265
279 279 279 279 279 280 280 280 280 280 280 280 280 280 280 280 280 280 280 280 280 279 279 279 279 279 279 279 278 278 278 277 277 277 276 276 275 275 274 274 273 272 272 271 271 270 269 269 268 268 267 267 266 266 265 265 265 264 264 264 264 263 263 263 263 263 263 263 263 264 264 264 264 264 264 264 264 264 264 264 264 264 264 264 264 265
279 279 279 279 279 280 280 280 280 280 280 280 280 280 280 280 280 280 280 280 280 279 279 279 279 279 279 278 278 278 278 277 277 277 276 276 276 275 275 274 273 273 272 272 271 271 270 269 269 268 268 267 267 267 266 266 265 265 264 264 264 263 263 263 263 263 263 263 263 263 263 263 264 264 264 264 264 264 264 264 264 264 264 264 265 265
279 279 279 279 279 280 280 280 280 280 280 280 280 280 280 280 280 280 280 279 279 279 279 279 279 279 278 278 278 277 277 277 277 277 276 276 276 275 275 274 274 273 273 272 272 271 271 270 270 269 269 268 268 267 267 266 266 265 265 264 264 264 264 264 263 263 263 263 263 263 263 263 264 264 264 264 264 264 264 264 264 264 265 265 265 265
279 279 279 279 279 279 279 279 279 279 279 279 279 279 279 279 279 279 279 279 279 279 279 279 278 278 278 278 277 277 277 277 276 276 276 276 275 275 275 274 274 274 273 273 272 272 271 271 271 270 270 269 269 268 268 267 267 266 266 265 265 265 264 264 264 264 264 264 264 264 264 264 264 264 264 264 264 264 264 265 265 265 265 265 265 265
279 279 279 279 279 279 279 279 279 279 279 279 279 279 279 279 279 279 279 279 279 278 278 278 278 278 277 277 277 276 276 276 276 276 275 275 275 275 275 275 274 274 274 273 273 273 272 272 271 271 271 270 270 269 269 268 268 267 267 267 266 266 266 265 265 265 265 265 265 265 265 265 265 264 264 265 265 265 265 265 265 265 265 265 265 266
279 279 279 279 279 279 279 279 279 279 279 279 279 279 279 279 279 279 279 279 278 278 278 278 277 277 277 276 276 276 275 275 275 275 275 275 275 275 275 275 274 274 274 274 273 273 273 272 272 272 272 271 271 271 270 270 269 269 268 268 268 268 267 267 267 266 266 266 266 266 265 265 265 265 265 265 265 265 265 265 265 265 265 265 266 266
279 279 279 279 279 279 279 279 279 279 279 279 279 279 279 279 279 279 279 278 278 278 277 277 277 276 276 276 276 275 275 275 275 274 274 274 274 274 274 274 274 274 274 274 274 274 273 273 273 273 272 272 272 272 272 271 271 270 270 270 270 269 269 269 268 268 267 267 267 267 266 266 266 266 266 265 265 265 265 265 265 265 265 265 265 265
279 279 279 279 279 279 279 279 279 279 279 279 279 279 279 279 279 278 278 278 278 277 277 277 276 276 276 275 275 275 275 275 274 274 274 274 274 274 274 274 274 274 274 274 274 274 274 274 273 273 273 273 273 273 273 273 273 272 272 271 271 271 271 270 270 269 269 268 268 268 267 267 267 266 266 266 266 265 265 265 265 265 265 265 265 265
279 279 279 279 279 279 279 279 279 279 279 279 279 279 279 279 279 278 278 278 277 277 277 276 276 276 275 275 275 275 275 275 274 274 274 274 274 274 274 274 274 274 274 274 274 274 274 274 274 274 274 274 274 274 274 274 274 274 273 273 273 272 272 271 271 271 270 269 269 269 268 268 267 267 267 266 266 266 265 265 265 264 264 264 264 264
Height
10651 10652 10652 10652 10652 10651 10651 10651 10652 10652 10651 10651 10651 10651 10651 10651 10651 10651 10651 10650 10650 10649 10649 10649 10649 10648 10648 10648 10648 10649 10649 10649 10649 10649 10649 10650 10650 10650 10651 10651 10651 10651 10651 10651 10651 10651 10651 10651 10652 10652 10652 10653 10653 10653 10653 10653 10653 10653 10654 10654 10654 10654 10654 10654 10655 10655 10655 10656 10656 10656 10656 10656 10656 10657 10657 10657 10658 10658 10659 10659 10659 10660 10660 10661 10661 10661
10647 10647 10647 10647 10647 10646 10645 10646 10646 10646 10646 10646 10646 10646 10646 10646 10646 10646 10646 10646 10646 10645 10645 10644 10644 10644 10643 10643 10643 10643 10643 10643 10643 10643 10644 10644 10644 10644 10644 10645 10645 10645 10645 10645 10645 10646 10646 10646 10646 10646 10647 10647 10647 10647 10648 10648 10648 10648 10648 10648 10648 10648 10649 10649 10649 10649 10649 10650 10650 10650 10651 10651 10651 10651 10651 10652 10652 10652 10653 10654 10654 10654 10655 10655 10656 10656
10642 10642 10641 10642 10642 10641 10640 10640 10641 10641 10641 10640 10640 10641 10641 10641 10641 10641 10641 10641 10641 10641 10640 10639 10639 10639 10639 10638 10638 10638 10637 10637 10637 10637 10637 10638 10638 10638 10639 10639 10639 10639 10639 10639 10639 10639 10640 10640 10640 10641 10641 10641 10642 10642 10642 10642 10642 10642 10642 10642 10642 10642 10643 10643 10643 10644 10644 10644 10644 10644 10644 10645 10645 10646 10646 10646 10646 10647 10647 10648 10648 10649 10649 10649 10650 10650
10637 10636 10636 10637 10637 10636 10636 10636 10635 10635 10635 10635 10634 10634 10635 10635 10635 10635 10635 10635 10635 10635 10635 10635 10634 10634 10634 10633 10633 10633 10632 10632 10632 10632 10632 10632 10632 10632 10632 10632 10633 10633 10634 10634 10634 10634 10634 10634 10634 10634 10634 10635 10636 10636 10636 10636 10637 10637 10637 10637 10637 10637 10637 10637 10637 10637 10638 10638 10639 10639 10639 10639 10639 10639 10640 10641 10641 10641 10642 10642 10642 10643 10644 10644 10644 10644
10631 10631 10631 10632 10631 10631 10631 10631 10631 10630 10630 10630 10629 10629 10629 10629 10629 10629 10629 10629 10629 10629 10629 10629 10629 10629 10628 10628 10628 10628 10627 10627 10627 10627 10627 10626 10626 10626 10626 10627 10627 10627 10627 10627 10627 10627 10627 10627 10628 10628 10628 10629 10629 10629 10630 10630 10631 10631 10631 10631 10631 10631 10631 10631 10631 10632 10632 10632 10632 10633 10633 10633 10634 10634 10634 10634 10635 10635 10636 10636 10637 10637 10637 10638 10639 10639
10624 10624 10625 10626 10626 10625 10625 10626 10626 10625 10625 10624 10624 10624 10624 10624 10624 10623 10623 10623 10623 10623 10623 10623 10623 10623 10623 10622 10622 10622 10622 10622 10622 10621 10621 10621 10621 10621 10621 10621 10621 10621 10621 10621 10621 10621 10621 10621 10621 10622 10622 10622 10622 10623 10623 10624 10624 10624 10624 10625 10625 10625 10625 10625 10626 10626 10626 10626 10626 10627 10627 10627 10627 10628 10628 10629 10629 10629 10629 10630 10631 10631 10632 10632 10632 10633
10616 10617 10618 10619 10619 10619 10619 10619 10619 10619 10619 10619 10619 10619 10619 10618 10618 10618 10618 10617 10617 10617 10617 10617 10617 10617 10617 10617 10617 10617 10617 10616 10616 10616 10616 10616 10616 10616 10616 10616 10616 10616 10616 10615 10615 10615 10615 10615 10615 10615 10616 10616 10616 10616 10617 10617 10617 10617 10618 10618 10619 10619 10619 10619 10619 10619 10619 10620 10620 10621 10621 10621 10621 10622 10622 10622 10622 10623 10624 10624 10624 10625 10626 10626 10627 10627
10609 10610 10611 10612 10612 10612 10612 10613 10613 10613 10613 10612 10612 10612 10612 10612 10612 10612 10612 10612 10612 10612 10612 10611 10611 10611 10611 10611 10611 10611 10611 10611 10611 10610 10610 10610 10611 10611 10611 10611 10611 10610 10610 10610 10609 10609 10609 10609 10609 10609 10609 10609 10609 10609 10610 10611 10611 10611 10611 10612 10612 10612 10612 10612 10612 10613 10613 10613 10614 10614 10614 10614 10615 10616 10616 10616 10616 10617 10617 10617 10618 10619 10619 10620 10621 10621
10603 10603 10604 10605 10606 10606 10606 10606 10606 10607 10607 10606 10606 10606 10605 10605 10606 10606 10606 10606 10606 10606 10606 10606 10606 10606 10606 10606 10606 10605 10605 10604 10604 10604 10604 10604 10604 10605 10605 10605 10605 10605 10605 10604 10604 10604 10604 10603 10603 10602 10602 10602 10602 10603 10603 10604 10604 10604 10604 10605 10605 10606 10606 10606 10606 10606 10607 10607 10607 10607 10607 10608 10609 10609 10609 10610 10610 10611 10611 10611 10612 10612 10612 10613 10614 10614
10597 10597 10597 10597 10599 10599 10599 10599 10599 10600 10601 10600 10599 10599 10599 10599 10598 10598 10599 10599 10599 10599 10600 10599 10599 10599 10599 10599 10599 10599 10599 10599 10598 10598 10598 10598 10598 10599 10599 10599 10599 10599 10599 10599 10599 10599 10598 10598 10597 10597 10597 10597 10596 10596 10596 10597 10597 10597 10597 10598 10598 10599 10599 10599 10599 10600 10600 10600 10601 10601 10601 10601 10602 10602 10603 10603 10604 10604 10604 10605 10605 10606 10606 10606 10607 10607
10591 10591 10591 10591 10592 10592 10593 10592 10592 10593 10594 10594 10592 10592 10592 10592 10592 10591 10591 10591 10591 10592 10592 10592 10592 10592 10592 10592 10593 10593 10593 10592 10592 10592 10592 10592 10592 10592 10592 10593 10593 10593 10593 10594 10593 10593 10593 10592 10592 10592 10592 10591 10591 10591 10590 10590 10590 10591 10591 10591 10591 10592 10592 10592 10592 10593 10593 10593 10594 10594 10594 10594 10595 10596 10596 10597 10597 10597 10597 10598 10598 10599 10599 10599 10600 10601
10585 10585 10585 10586 10586 10586 10586 10586 10586 10587 10587 10587 10586 10586 10585 10586 10586 10586 10584 10583 10583 10583 10584 10584 10585 10586 10586 10586 10586 10586 10587 10586 10586 10585 10585 10586 10586 10586 10586 10586 10587 10587 10587 10587 10587 10587 10587 10587 10587 10587 10586 10586 10586 10585 10584 10584 10584 10584 10584 10584 10584 10585 10585 10586 10586 10586 10586 10586 10586 10587 10587 10587 10588 10589 10589 10590 10591 10591 10591 10591 10591 10591 10592 10592 10592 10593
10579 10579 10579 10579 10579 10579 10579 10580 10580 10580 10580 10580 10579 10579 10578 10579 10579 10579 10578 10576 10576 10576 10576 10576 10576 10576 10577 10578 10579 10579 10579 10579 10578 10577 10577 10578 10579 10579 10580 10580 10580 10580 10581 10581 10581 10581 10581 10581 10581 10581 10581 10580 10580 10579 10579 10578 10578 10577 10577 10577 10577 10578 10578 10578 10578 10579 10579 10579 10579 10579 10580 10581 10581 10581 10582 10582 10583 10584 10584 10584 10584 10584 10584 10585 10585 10586
10574 10574 10574 10573 10573 10573 10574 10574 10574 10574 10573 10573 10573 10572 10572 10572 10572 10572 10571 10570 10569 10569 10569 10568 10567 10567 10568 10569 10571 10571 10571 10571 10570 10569 10569 10569 10571 10572 10573 10572 10572 10572 10573 10574 10574 10574 10574 10574 10574 10574 10574 10574 10574 10573 10572 10572 10572 10572 10571 10571 10571 10571 10571 10571 10571 10571 10571 10571 10572 10572 10572 10572 10573 10574 10574 10575 10576 10576 10577 10577 10577 10577 10577 10577 10577 10578
10568 10568 10567 10567 10567 10567 10567 10568 10567 10567 10567 10567 10567 10566 10566 10566 10566 10565 10564 10563 10562 10562 10562 10561 10559 10559 10559 10561 10562 10563 10563 10562 10561 10560 10559 10560 10561 10563 10564 10564 10564 10564 10566 10566 10566 10566 10566 10567 10567 10566 10567 10567 10567 10566 10566 10566 10565 10565 10565 10565 10565 10565 10565 10564 10564 10564 10564 10564 10564 10564 10564 10565 10566 10566 10567 10567 10568 10569 10569 10569 10570 10570 10570 10570 10570 10570
10562 10562 10561 10561 10561 10561 10561 10562 10562 10561 10561 10561 10561 10560 10559 10559 10558 10558 10558 10557 10556 10555 10555 10554 10552 10551 10550 10551 10553 10555 10556 10554 10553 10552 10551 10550 10551 10552 10555 10556 10555 10555 10556 10557 10557 10557 10558 10559 10559 10559 10559 10559 10559 10559 10559 10559 10558 10558 10558 10558 10558 10558 10558 10557 10557 10557 10557 10557 10557 10557 10557 10557 10557 10558 10559 10559 10560 10561 10561 10562 10562 10562 10562 10562 10562 10562
10556 10556 10555 10554 10554 10554 10554 10556 10556 10555 10554 10554 10554 10554 10553 10552 10552 10551 10551 10550 10549 10549 10548 10547 10546 10544 10542 10541 10543 10545 10547 10547 10545 10543 10542 10541 10540 10541 10545 10546 10546 10544 10546 10547 10547 10548 10549 10549 10550 10550 10551 10551 10551 10551 10551 10551 10551 10551 10551 10551 10551 10551 10551 10551 10551 10550 10550 10549 10549 10549 10549 10549 10549 10550 10550 10551 10552 10552 10553 10554 10554 10554 10555 10555 10554 10554
10549 10549 10549 10548 10547 10547 10547 10549 10549 10548 10548 10547 10547 10547 10546 10546 10546 10545 10544 10543 10542 10542 10541 10540 10539 10538 10536 10534 10533 10535 10538 10539 10537 10535 10534 10532 10531 10531 10534 10536 10536 10535 10535 10536 10537 10537 10539 10539 10539 10540 10541 10541 10542 10542 10542 10542 10542 10542 10542 10542 10543 10543 10543 10543 10543 10543 10542 10542 10542 10542 10541 10541 10541 10542 10542 10542 10543 10544 10544 10545 10546 10546 10547 10547 10547 10546
10542 10542 10542 10541 10541 10540 10541 10541 10541 10541 10541 10541 10540 10540 10539 10539 10538 10538 10537 10536 10536 10536 10534 10534 10532 10531 10529 10527 10526 10526 10529 10530 10529 10527 10525 10523 10522 10521 10524 10526 10526 10525 10524 10525 10526 10526 10527 10528 10528 10529 10530 10531 10531 10532 10532 10533 10533 10534 10534 10534 10534 10535 10535 10535 10535 10535 10535 10534 10534 10534 10534 10534 10534 10533 10534 10534 10534 10535 10536 10536 10537 10537 10538 10538 10538 10538
10535 10535 10535 10534 10534 10533 10533 10533 10534 10534 10534 10534 10533 10533 10532 10531 10531 10531 10530 10529 10529 10529 10528 10527 10526 10524 10522 10521 10519 10519 10520 10522 10521 10519 10517 10515 10514 10512 10514 10516 10516 10515 10514 10514 10514 10516 10516 10516 10516 10517 10518 10519 10520 10521 10522 10522 10523 10524 10524 10524 10525 10526 10526 10526 10526 10526 10526 10526 10526 10526 10526 10526 10526 10525 10525 10525 10526 10526 10527 10527 10527 10528 10529 10529 10529 10529
10527 10527 10527 10527 10527 10526 10525 10525 10526 10527 10527 10527 10526 10526 10524 10524 10523 10523 10522 10522 10522 10522 10521 10520 10519 10517 10516 10515 10513 10512 10512 10514 10514 10511 10509 10508 10506 10504 10504 10506 10507 10506 10504 10504 10504 10505 10506 10505 10505 10505 10506 10507 10508 10509 10510 10511 10511 10512 10513 10514 10514 10515 10516 10516 10516 10516 10517 10517 10517 10517 10517 10517 10517 10517 10517 10517 10517 10517 10517 10518 10519 10519 10519 10519 10520 10520
10520 10519 10519 10520 10521 10519 10518 10517 10519 10519 10519 10519 10519 10517 10516 10516 10516 10515 10514 10514 10514 10514 10513 10512 10511 10510 10509 10507 10506 10504 10504 10506 10506 10504 10502 10501 10499 10496 10495 10497 10498 10497 10495 10494 10494 10495 10495 10495 10494 10494 10494 10495 10496 10496 10497 10498 10499 10500 10501 10502 10503 10504 10504 10505 10506 10506 10506 10506 10507 10507 10507 10508 10508 10508 10508 10508 10508 10508 10509 10509 10509 10509 10510 10510 10510 10511
10512 10512 10511 10512 10512 10512 10511 10511 10511 10511 10511 10511 10511 10510 10509 10509 10509 10507 10507 10507 10507 10506 10506 10504 10504 10502 10501 10499 10497 10496 10496 10496 10497 10496 10496 10494 10491 10487 10487 10489 10489 10488 10486 10485 10485 10486 10486 10485 10484 10484 10484 10484 10484 10484 10485 10486 10486 10487 10488 10489 10491 10492 10492 10493 10494 10494 10495 10496 10496 10496 10497 10497 10498 10499 10499 10499 10499 10499 10499 10499 10500 10500 10501 10501 10501 10501
10505 10504 10503 10504 10504 10503 10502 10502 10502 10502 10502 10502 10502 10502 10502 10501 10501 10500 10499 10499 10499 10499 10497 10497 10496 10494 10492 10490 10489 10487 10486 10486 10487 10488 10487 10486 10482 10481 10480 10481 10481 10479 10477 10476 10476 10476 10476 10475 10474 10473 10473 10474 10473 10473 10473 10474 10474 10474 10476 10476 10477 10479 10480 10481 10481 10482 10482 10483 10484 10484 10485 10486 10487 10487 10488 10489 10489 10490 10490 10490 10491 10491 10491 10491 10491 10491
10496 10496 10495 10494 10494 10494 10494 10493 10493 10492 10493 10493 10494 10493 10493 10493 10492 10492 10491 10491 10491 10491 10489 10489 10487 10485 10482 10481 10480 10478 10476 10476 10477 10479 10477 10476 10474 10472 10472 10472 10472 10471 10469 10467 10467 10467 10467 10465 10464 10463 10463 10463 10462 10462 10462 10462 10462 10462 10462 10464 10464 10466 10466 10467 10468 10469 10469 10470 10471 10472 10472 10474 10474 10476 10477 10478 10479 10479 10480 10481 10481 10481 10481 10481 10481 10481
10487 10486 10486 10486 10485 10485 10484 10484 10483 10483 10484 10484 10484 10484 10484 10484 10484 10483 10482 10482 10482 10481 10481 10480 10478 10476 10474 10473 10471 10469 10466 10466 10467 10467 10467 10466 10465 10464 10462 10462 10463 10463 10461 10459 10459 10459 10459 10456 10454 10453 10453 10453 10452 10452 10452 10452 10451 10451 10451 10451 10452 10452 10453 10454 10454 10455 10456 10456 10457 10458 10459 10460 10461 10463 10464 10466 10467 10468 10469 10470 10471 10471 10471 10471 10471 10471
10477 10477 10476 10476 10475 10475 10474 10474 10474 10473 10474 10474 10474 10474 10475 10475 10474 10473 10472 10471 10471 10472 10472 10471 10468 10466 10465 10464 10462 10459 10457 10456 10456 10456 10456 10456 10456 10454 10452 10452 10454 10454 10452 10451 10450 10451 10451 10448 10446 10444 10444 10443 10442 10442 10442 10441 10441 10440 10440 10440 10440 10441 10441 10441 10441 10442 10442 10442 10443 10444 10445 10446 10447 10449 10451 10452 10454 10456 10457 10459 10460 10461 10461 10462 10461 10461
10468 10467 10467 10466 10465 10464 10464 10464 10463 10463 10463 10463 10464 10464 10465 10466 10465 10463 10461 10460 10461 10462 10462 10459 10457 10457 10456 10454 10452 10450 10448 10446 10444 10443 10444 10446 10446 10443 10441 10442 10444 10444 10442 10441 10441 10442 10442 10440 10437 10436 10434 10434 10432 10432 10431 10431 10430 10429 10429 10429 10429 10429 10429 10429 10429 10429 10429 10429 10430 10431 10431 10432 10434 10435 10437 10439 10441 10442 10444 10446 10448 10449 10451 10451 10451 10451
10459 10457 10457 10456 10455 10454 10454 10453 10453 10452 10452 10452 10453 10453 10454 10455 10455 10453 10451 10450 10451 10452 10450 10447 10446 10446 10446 10444 10442 10441 10439 10436 10433 10432 10434 10436 10435 10432 10430 10432 10433 10433 10432 10432 10432 10433 10432 10431 10429 10427 10426 10424 10423 10422 10421 10420 10419 10419 10419 10418 10418 10418 10418 10417 10417 10417 10417 10417 10417 10417 10418 10419 10420 10421 10423 10424 10427 10429 10431 10432 10435 10437 10439 10440 10441 10441
10449 10448 10447 10446 10445 10444 10444 10443 10442 10442 10442 10442 10442 10442 10442 10443 10444 10442 10441 10440 10440 10440 10438 10436 10435 10435 10435 10434 10432 10431 10428 10424 10422 10422 10424 10426 10424 10420 10419 10422 10422 10421 10420 10422 10424 10423 10422 10421 10421 10420 10417 10416 10414 10412 10411 10409 10408 10407 10407 10407 10407 10407 10407 10406 10406 10406 10405 10404 10404 10404 10405 10406 10406 10407 10409 10411 10412 10414 10416 10418 10421 10423 10426 10427 10429 10429
10439 10438 10437 10436 10434 10434 10434 10433 10432 10431 10431 10431 10431 10431 10431 10431 10431 10431 10430 10429 10429 10428 10427 10425 10424 10424 10424 10424 10423 10421 10417 10412 10411 10412 10415 10416 10412 10409 10409 10412 10412 10409 10408 10411 10414 10414 10411 10411 10412 10412 10410 10407 10404 10402 10401 10399 10397 10397 10396 10396 10396 10396 10395 10395 10394 10394 10394 10393 10392 10392 10392 10393 10394 10394 10396 10397 10399 10401 10402 10404 10406 10409 10412 10414 10416 10417
10429 10427 10427 10426 10424 10424 10423 10422 10421 10421 10420 10419 10419 10419 10419 10419 10419 10419 10418 10417 10417 10416 10416 10414 10412 10412 10412 10412 10412 10410 10406 10402 10401 10401 10404 10405 10402 10399 10398 10401 10401 10398 10396 10399 10402 10403 10401 10401 10401 10402 10402 10400 10396 10393 10391 10389 10387 10386 10386 10386 10385 10384 10383 10382 10382 10382 10382 10381 10381 10381 10381 10381 10381 10381 10382 10384 10386 10387 10389 10390 10392 10394 10397 10400 10402 10404
10418 10417 10416 10415 10414 10413 10412 10411 10411 10410 10409 10408 10407 10407 10407 10407 10406 10406 10406 10405 10405 10404 10404 10403 10402 10401 10401 10401 10401 10399 10396 10393 10391 10391 10392 10394 10392 10389 10387 10389 10390 10388 10385 10386 10389 10391 10391 10391 10391 10392 10392 10391 10389 10385 10382 10379 10377 10376 10375 10375 10374 10372 10371 10371 10371 10370 10369 10368 10368 10369 10368 10368 10368 10369 10369 10371 10372 10373 10375 10377 10379 10381 10383 10386 10388 10390
10407 10406 10405 10404 10403 10402 10401 10400 10399 10399 10397 10397 10396 10395 10395 10394 10394 10394 10393 10392 10392 10392 10392 10392 10391 10390 10389 10389 10389 10387 10386 10383 10381 10380 10381 10382 10381 10377 10376 10377 10378 10377 10375 10375 10376 10377 10378 10379 10380 10381 10381 10381 10379 10377 10374 10371 10368 10366 10365 10364 10363 10361 10359 10358 10358 10357 10356 10356 10356 10356 10356 10355 10355 10356 10356 10357 10358 10359 10361 10363 10365 10367 10369 10371 10374 10376
10395 10394 10393 10392 10391 10391 10389 10389 10388 10387 10386 10385 10384 10384 10383 10382 10382 10381 10381 10381 10380 10381 10381 10381 10380 10379 10379 10378 10377 10376 10374 10371 10370 10369 10370 10369 10368 10366 10365 10366 10366 10364 10364 10364 10363 10364 10366 10367 10368 10369 10370 10369 10368 10366 10364 10362 10359 10357 10355 10354 10352 10351 10349 10347 10346 10345 10344 10343 10342 10342 10342 10341 10342 10342 10343 10344 10344 10346 10347 10349 10351 10352 10354 10357 10359 10362
10384 10382 10381 10381 10380 10379 10378 10377 10376 10376 10375 10374 10373 10372 10372 10371 10370 10369 10369 10368 10368 10368 10368 10368 10368 10368 10368 10367 10367 10365 10362 10359 10358 10357 10357 10357 10355 10354 10354 10353 10352 10352 10352 10352 10351 10351 10353 10355 10356 10356 10357 10357 10357 10354 10352 10351 10350 10348 10346 10343 10341 10340 10338 10336 10334 10332 10332 10331 10330 10329 10329 10329 10329 10329 10329 10330 10331 10332 10334 10335 10337 10338 10340 10342 10344 10347
10372 10371 10369 10369 10368 10368 10367 10365 10364 10364 10363 10362 10361 10361 10360 10359 10359 10357 10356 10356 10356 10356 10356 10356 10356 10356 10356 10356 10356 10354 10352 10349 10347 10346 10344 10343 10342 10342 10341 10340 10338 10338 10340 10340 10339 10337 10339 10342 10343 10343 10344 10344 10344 10342 10340 10339 10339 10338 10336 10332 10329 10328 10327 10324 10321 10320 10320 10319 10317 10316 10316 10316 10316 10316 10316 10317 10318 10319 10321 10321 10322 10324 10325 10327 10329 10332
10361 10359 10358 10357 10357 10357 10356 10354 10353 10352 10352 10351 10350 10349 10348 10347 10347 10346 10345 10344 10344 10344 10343 10343 10343 10342 10343 10343 10343 10342 10341 10338 10336 10333 10331 10329 10329 10328 10328 10327 10325 10324 10325 10326 10326 10325 10326 10327 10329 10330 10329 10330 10330 10330 10329 10327 10327 10326 10323 10320 10318 10317 10316 10312 10309 10308 10308 10306 10305 10304 10304 10304 10304 10304 10304 10304 10306 10306 10307 10307 10308 10309 10311 10312 10314 10316
10350 10349 10348 10347 10346 10346 10345 10344 10342 10341 10341 10341 10339 10337 10336 10336 10335 10334 10333 10332 10332 10332 10331 10331 10331 10330 10330 10330 10329 10329 10327 10326 10323 10321 10318 10316 10314 10314 10314 10313 10311 10310 10309 10311 10312 10312 10312 10313 10314 10315 10315 10316 10316 10316 10316 10316 10315 10313 10310 10308 10307 10306 10304 10301 10298 10296 10295 10293 10292 10291 10291 10291 10291 10292 10292 10292 10293 10294 10295 10294 10294 10294 10296 10297 10299 10301
10340 10339 10337 10336 10336 10335 10334 10333 10332 10331 10330 10329 10328 10326 10326 10324 10323 10322 10321 10321 10321 10320 10319 10318 10318 10317 10317 10317 10316 10315 10314 10311 10309 10307 10305 10303 10301 10299 10299 10298 10297 10296 10294 10295 10296 10297 10298 10299 10299 10299 10300 10301 10302 10302 10302 10302 10302 10301 10298 10296 10295 10292 10290 10288 10287 10286 10282 10280 10279 10279 10279 10277 10277 10279 10280 10280 10281 10281 10282 10282 10282 10282 10282 10284 10285 10286
10330 10329 10327 10326 10325 10325 10324 10323 10322 10321 10320 10319 10317 10316 10314 10313 10312 10311 10310 10309 10308 10308 10307 10306 10306 10306 10305 10304 10303 10302 10301 10298 10295 10292 10291 10289 10287 10286 10284 10283 10282 10281 10280 10281 10281 10282 10282 10284 10284 10285 10285 10286 10287 10289 10289 10289 10287 10287 10286 10285 10282 10279 10276 10276 10276 10274 10271 10267 10266 10266 10266 10265 10265 10266 10266 10267 10267 10268 10269 10269 10269 10269 10269 10270 10271 10272
10320 10319 10317 10316 10315 10314 10314 10312 10311 10311 10309 10308 10307 10306 10303 10302 10301 10301 10299 10297 10296 10295 10294 10294 10294 10293 10292 10291 10290 10289 10287 10286 10282 10279 10277 10275 10272 10271 10269 10268 10267 10266 10266 10266 10266 10266 10266 10268 10270 10271 10271 10270 10271 10274 10276 10275 10274 10274 10274 10272 10268 10265 10264 10265 10264 10262 10259 10257 10254 10252 10252 10252 10252 10252 10252 10254 10255 10255 10255 10256 10257 10257 10257 10257 10257 10259
10310 10309 10308 10307 10306 10305 10304 10302 10301 10300 10299 10298 10297 10295 10292 10291 10291 10290 10288 10286 10284 10283 10282 10282 10281 10281 10281 10279 10277 10274 10273 10271 10269 10266 10264 10261 10258 10256 10254 10252 10251 10251 10250 10251 10252 10251 10251 10252 10254 10256 10256 10256 10256 10259 10261 10260 10259 10260 10260 10257 10255 10253 10252 10252 10250 10248 10247 10246 10243 10239 10237 10238 10239 10239 10239 10241 10242 10242 10242 10242 10243 10244 10244 10244 10245 10246
10300 10299 10298 10297 10297 10296 10294 10293 10291 10289 10289 10287 10286 10284 10281 10280 10280 10279 10277 10276 10273 10271 10271 10269 10269 10269 10268 10266 10264 10262 10261 10258 10255 10252 10250 10248 10245 10242 10239 10237 10236 10235 10235 10236 10237 10237 10237 10237 10239 10240 10241 10241 10243 10245 10245 10244 10244 10245 10245 10243 10241 10240 10239 10237 10236 10235 10236 10235 10231 10227 10224 10225 10226 10226 10227 10228 10229 10229 10229 10230 10231 10231 10231 10231 10232 10233
10290 10289 10289 10287 10287 10286 10284 10282 10281 10279 10279 10277 10276 10273 10271 10269 10269 10267 10266 10264 10262 10260 10258 10257 10257 10257 10256 10253 10250 10249 10249 10247 10243 10239 10236 10234 10231 10228 10225 10223 10222 10221 10220 10221 10221 10222 10223 10224 10224 10224 10224 10226 10229 10230 10230 10229 10229 10229 10229 10228 10227 10226 10226 10225 10224 10223 10224 10222 10219 10215 10214 10213 10214 10214 10214 10215 10216 10216 10217 10218 10219 10219 10219 10219 10219 10221
10280 10279 10279 10277 10276 10275 10274 10272 10270 10269 10268 10266 10264 10262 10261 10259 10257 10256 10254 10252 10251 10249 10246 10244 10244 10244 10243 10240 10237 10236 10236 10234 10231 10227 10224 10221 10218 10214 10211 10209 10207 10207 10206 10206 10206 10207 10208 10209 10209 10209 10209 10211 10212 10214 10214 10215 10215 10214 10214 10212 10212 10212 10214 10213 10212 10211 10210 10209 10206 10204 10202 10202 10202 10202 10202 10202 10202 10204 10206 10207 10207 10207 10207 10206 10207 10208
10269 10269 10269 10267 10266 10264 10263 10261 10259 10259 10257 10255 10252 10251 10249 10248 10246 10244 10242 10240 10238 10236 10235 10232 10231 10229 10229 10227 10225 10224 10222 10221 10218 10215 10212 10209 10206 10202 10198 10195 10194 10192 10192 10192 10192 10192 10192 10194 10194 10196 10196 10197 10197 10197 10197 10199 10200 10201 10199 10198 10197 10199 10201 10201 10199 10198 10197 10196 10195 10192 10190 10190 10191 10191 10191 10189 10190 10192 10195 10196 10196 10196 10196 10196 10196 10196
10259 10258 10257 10256 10255 10254 10252 10250 10248 10247 10246 10244 10241 10239 10238 10237 10235 10232 10230 10227 10224 10222 10222 10220 10218 10216 10214 10213 10212 10211 10210 10208 10206 10203 10200 10197 10194 10191 10187 10183 10181 10179 10178 10178 10177 10177 10178 10179 10179 10181 10182 10182 10182 10182 10182 10182 10184 10186 10186 10185 10184 10185 10187 10187 10187 10186 10184 10184 10182 10180 10177 10177 10178 10178 10177 10177 10179 10181 10184 10184 10184 10184 10185 10184 10184 10184
10248 10247 10246 10244 10243 10242 10241 10238 10237 10236 10235 10233 10230 10228 10226 10224 10222 10220 10218 10215 10212 10209 10208 10206 10204 10202 10201 10199 10197 10197 10196 10196 10194 10191 10188 10186 10183 10180 10176 10172 10169 10166 10165 10164 10164 10163 10163 10164 10166 10166 10167 10169 10169 10169 10167 10166 10167 10170 10172 10172 10172 10172 10172 10172 10173 10172 10171 10170 10169 10166 10165 10164 10165 10165 10164 10165 10167 10169 10171 10172 10173 10174 10174 10173 10172 10171
10237 10236 10234 10233 10232 10231 10229 10227 10226 10225 10224 10221 10219 10217 10214 10212 10209 10207 10204 10202 10199 10197 10194 10192 10191 10189 10188 10186 10184 10182 10182 10182 10181 10179 10176 10174 10171 10169 10166 10162 10158 10155 10153 10152 10150 10149 10149 10150 10151 10152 10154 10156 10157 10157 10155 10152 10151 10153 10157 10159 10160 10159 10157 10157 10158 10157 10157 10156 10154 10152 10151 10151 10151 10151 10151 10152 10153 10155 10157 10159 10162 10163 10162 10161 10160 10159
10224 10223 10222 10221 10221 10219 10217 10216 10214 10213 10211 10209 10207 10204 10202 10199 10196 10194 10191 10189 10186 10184 10181 10179 10177 10176 10175 10173 10171 10169 10169 10167 10167 10166 10164 10161 10159 10156 10154 10151 10147 10144 10142 10140 10137 10136 10135 10136 10137 10138 10139 10142 10144 10146 10144 10141 10137 10137 10139 10144 10146 10145 10144 10143 10142 10142 10141 10141 10139 10138 10137 10136 10136 10136 10137 10138 10139 10141 10143 10146 10149 10151 10150 10149 10148 10147